SL-16 DEB, 22294

Orbit data source: Space-Track

SL-16 DEB, 22294 is space debris in LEO originally from a launch on Fri, 25 Dec 1992 UTC launched from the Tyuratam Missile And Space Complex (TTMTR). Debris objects in space refer to the collection of defunct objects orbiting the Earth. Examples of debris include non-operational satellites, rocket bodies, and fragments generated from explosions, collisions, or faulty payload assembly.

Loading next visibility...
Identifier
22294, 1992-093J
Orbit
LEO
Country
Flag of CISCIS
Related business
Manufacturer
Unknown
Mission
Spacecraft
Bus & Motor
Unknown
Mass
Unknown
Launch date (UTC)
1992-12-25 (33 years ago)
Launch vehicle
Unknown
Launch site
Tyuratam Missile And Space Complex (TTMTR)
Object type
Payload
Rocket body
Debris
Shape & HBR
Unknown shape, 0.6 m
Radar Cross Section
Medium (>0.1 m² and <1 m²)

Expand to show TLE details & history
Last TLE update: 8 hours ago

TLE from 8 hours ago
0 SL-16 DEB
1 22294U 92093J   26037.22379216 -.00000261  00000-0 -11476-3 0  9995
2 22294  71.0609 315.2821 0099160 356.2564 166.1393 14.10552548704546
Epoch: 2026-02-06T05:22Z
TLE epoch observation values (Epoch: 2026-02-06T05:22:15.642Z)
Latitude
16.36161°
Longitude
-87.39943°
Altitude
928.941 km
Speed
7.353 km/s
True Right ascension
08h 38m 07s
True Declination
16° 16' 16"
Sunlit
Object was in full shadow at epoch
Visualization orbit readout
Latitude
Unknown
Longitude
Unknown
Altitude
Unknown
Speed
Unknown
Apparent Right ascension
Unknown
Apparent Declination
Unknown
Sunlit
N/A
Visualization observer readout
Local Sidereal Time
15:50:25
Azimuth
Unknown
Elevation
Unknown
Doppler factor
Unknown
Orbital elements
Apogee altitude
927.132 km
Perigee altitude
783.677 km
Semi-major axis
7,233.541 km
Eccentricity
0.00992
Inclination
71.0609°
RAAN
315.2821°
Arg. of periapsis
356.2564°
True anomaly
166.40827°
Mean anomaly
166.1393°
Eccentric anomaly
166.27411°
Mean motion
3.5279 °/min
Orbital period
102.04 mins
BSTAR
-0.00011476
Loading maneuver chart data...
Computing Atmospheric mass density...

Documentation

Showing up to 5 results
|